Regional Weather Roundup
Issued by NWS Newport/Morehead, NC

Current Version | Previous Version | Graphics & Text | Print | Product List | Glossary Off
Versions: 1 2 3 4 5 6 7 8 9 10 11 12 13 14 15 16 17 18 19 20 21 22 23 24 25 26 27 28 29 30 31 32 33 34 35 36 37 38 39 40 41 42 43 44 45 46 47 48 49 50

000
ASUS42 KMHX 271312
RWRMHX
WEATHER ROUNDUP FOR EASTERN NORTH CAROLINA
NATIONAL WEATHER SERVICE NEWPORT/MOREHEAD CITY NC
900 AM EDT MON JUL 27 2015

NOTE: "FAIR" INDICATES FEW OR NO CLOUDS BELOW 12,000 FEET
WITH NO SIGNIFICANT WEATHER AND/OR OBSTRUCTIONS TO VISIBILITY

NCZ015>017-031-032-045>047-102-103-271400-
NORTH COAST

CITY           SKY/WX    TMP DP  RH WIND       PRES   REMARKS
EDENTON        CLOUDY    80  71  74 S5        30.03R
ELIZABETH CITY CLOUDY    78  72  81 S3        30.03R
KITTY HAWK     CLOUDY    80  70  73 S3        30.02R
MANTEO         PTSUNNY   79  70  73 S3        30.03S

$$

NCZ045>047-081-094-103-104-271400-
CENTRAL COAST

CITY           SKY/WX    TMP DP  RH WIND       PRES   REMARKS
FRISCO         MOSUNNY   84  69  60 SE7       30.02R
SWANQUARTER      N/A     81 N/A N/A SE5       30.00R

$$

NCZ095-097-098-100-101-271400-
SOUTHERN COAST

CITY           SKY/WX    TMP DP  RH WIND       PRES   REMARKS
BEAUFORT       MOSUNNY   81  72  74 E7        30.01R
CEDAR ISLAND     N/A     84 N/A N/A E6        30.06S
JACKSONVILLE   MOSUNNY   81  74  79 E7        30.00R
PINEY ISLAND   PTSUNNY  N/A N/A N/A E8        30.01R
WILMINGTON     PTSUNNY   82  75  79 E10       30.00R


$$

NCZ011>013-027>030-043-044-078>080-089-090>093-098-271400-
COASTAL PLAIN

CITY           SKY/WX    TMP DP  RH WIND       PRES   REMARKS
AHOSKIE        CLOUDY    73  71  93 CALM      30.04R
CLINTON        MOSUNNY   80  75  87 CALM      30.02R
ELIZABETHTOWN  MOSUNNY   78  75  91 CALM      30.01R
GOLDSBORO      PTSUNNY   79  74  85 SE5       30.00R
GREENVILLE     PTSUNNY   81  73  78 SE6       30.04R
HAVELOCK       PTSUNNY   81  74  79 E5        30.02R
KENANSVILLE    PTSUNNY   77  74  90 CALM      30.03R
KINSTON        CLOUDY    79  73  83 S3        30.03R
NEW BERN       PTSUNNY   80  74  81 SE3       30.03R
RICHLANDS      PTSUNNY   79  72  78 CALM      30.02R
ROCKY MOUNT    PTSUNNY   76  72  87 CALM      30.03R
WASHINGTON     CLOUDY    79  73  83 SE3       30.02R
WHITEVILLE     SUNNY     81  76  83 E5        30.00R

$$

AMZ130-135-150-152-154-156-158-170-250-252-270-ANZ085-086-088-633-658-670-271400-
MARINE OBSERVATIONS

STATION/POSITION TIME  TEMP    WIND        PRES    WAVE   SWELL
                       AIR SEA DIR/SP/G            HT/PER HT/PER
                 (UTC) (F)     (DEG/KT/KT) (MB)    (FT/S) (FT/S)
CHESAPEAKE LIGHT 1300   79     200/  8/  9 1017.9
64 E VA BEACH    1250   80 80  180/  6/  6 1016.8    2/11   2/11
DUCK             1200   79 80  150/  8/  8 1015.6
2 E DUCK         1211      80                N/A     2/12   2/12
OREGON INLET     1200   79 81  130/  3/  5 1016.5
13E OREGON INLT  1300      78                N/A     3/11   2/11
HATTERAS CG      1200   81 81  120/  5/  7 1015.8
DIAMOND BUOY     NOT AVBL
CAPE LOOKOUT     1300   81     110/  7/  8 1016.0
BEAUFORT LAB     1200   81 80  120/  7/  9 1015.1
30 SE NEW RVR IN NOT AVBL
27 SE WRIGHTSVLE 1200      81  120/ 12/ 14   N/A
5 SE WRIGHTSVLE  NOT AVBL
225 S CAPE HAT   1250   80 82  290/ 12/ 14 1015.2    4/ 7   3/ 7
41 SE CHARLESTON 1250   81 83   10/  4/  6 1013.9    2/11   2/11

$$



USA.gov is the U.S. government's official web portal to all federal, state and local government web resources and services.